Starlink 11133

operational
NORAD ID: 59954 Int'l Des: 2024-107 Owner: SPXS Country: US Constellation: starlink
LEOCIRCULAR

Über Starlink 11133

Beschreibung wird geladen...

Live-Position

3D-Globus wird geladen...

Nächste Überflüge

Höhenverlauf

Altitude vs Time

uPlot chart will show altitude changes over time

Zweizeiliger Elementsatz

1 59954U 24107K 25260.60942659 -.00002726 00000-0 -17641-4 0 9994
2 59954 53.1596 24.3481 0001094 95.5670 264.5472 15.69720658 74966
Epoch: 17. Sept. 2025 • Age: 29 hours

Aktueller Status

Höhe 375.1 km
Geschwindigkeit 7.68 km/s
Subsatellitenpunkt -43.80°S, 43.77°E
Startdatum 5. Juni 2024
Alter 1.2 years
Typ internet

Technische Details

Klassifizierung Payload
Masse 960.00 kg
Trockenmasse 910.00 kg
Gesamtmasse 960.00 kg
Länge 0.30 m
Durchmesser 4.10 m
Spannweite 29.00 m
Form Box + pan
Hersteller SPXS
Bus-Typ Starlink V2MD
Phasenstatus In Orbit
Besitzer/Staat SPXS/US

Große Konstellationen

Loading constellations...